Terre Haute, IN

8:11 AM EST on February 19, 2017 (GMT -0500)
Terre Haute International-Hulman

Weather History for KHUF - January, 2013

Change the Weather History Date:

Saturday, January 12, 2013

  Actual Average Record
Temperature  
Mean Temperature 52 °F 28 °F  
Max Temperature 63 °F 36 °F 64 °F (2005)
Min Temperature 41 °F 20 °F -17 °F (1977)
Degree Days  
Heating Degree Days 13 37  
Month to date heating degree days 417 444  
Since 1 July heating degree days 2351 2555  
Cooling Degree Days 0 0  
Month to date cooling degree days 0 0  
Year to date cooling degree days 0 0  
Growing Degree Days 4 (Base 50)    
Moisture  
Dew Point 52 °F    
Average Humidity 84    
Maximum Humidity 100    
Minimum Humidity 67    
Precipitation  
Precipitation 1.76 in 0.09 in 1.76 in (2013)
Month to date precipitation 3.17 1.15  
Year to date precipitation 3.17 1.15  
Sea Level Pressure  
Sea Level Pressure 29.86 in    
Wind  
Wind Speed 7 mph (North)    
Max Wind Speed 25 mph    
Max Gust Speed 32 mph    
Visibility 6 miles    
Events Rain , Thunderstorm    
T = Trace of Precipitation, MM = Missing Value Source: NWS Daily Summary

Daily Weather History Graph

Daily Weather History Graph

Search for Another Location

Airport or City:

Trip Planner

Search our weather history database for the weather conditions in past years. The results will help you decide how hot, cold, wet, or windy it might be!

Date:

Astronomy

Jan. 12, 2013 Rise Set
Actual Time 8:08 AM EST 5:47 PM EST
Civil Twilight 7:39 AM EST 6:16 PM EST
Nautical Twilight 7:05 AM EST 6:49 PM EST
Astronomical Twilight 6:33 AM EST 7:22 PM EST
Moon 8:27 AM EST (1/12) 7:14 PM EST (1/12)
Length of Visible Light 10h 37m
Length of Day
9h 38m
New Moon, 1% of the Moon is Illuminated
Jan 12
New Moon
Jan 18
First Quarter
Jan 26
Full
Feb 3
Last Quarter
Feb 10
New

Hourly Weather History & Observations

Time (EST) Temp. Windchill Dew Point Humidity Pressure Visibility Wind Dir Wind Speed Gust Speed Precip Events Conditions
12:53 AM 51.1 °F - 46.9 °F 86% 29.88 in 10.0 mi South 10.4 mph - N/A   Clear
1:53 AM 52.0 °F - 46.9 °F 83% 29.89 in 10.0 mi South 11.5 mph - N/A   Clear
2:53 AM 51.1 °F - 46.9 °F 86% 29.91 in 10.0 mi South 10.4 mph - N/A   Clear
3:53 AM 51.1 °F - 46.9 °F 86% 29.90 in 10.0 mi South 9.2 mph - N/A   Clear
4:53 AM 51.1 °F - 48.0 °F 89% 29.91 in 10.0 mi South 10.4 mph - N/A   Clear
5:53 AM 51.1 °F - 48.9 °F 92% 29.90 in 10.0 mi South 8.1 mph - N/A   Clear
6:53 AM 48.0 °F - 46.9 °F 96% 29.93 in 10.0 mi South 5.8 mph - N/A   Clear
7:53 AM 48.9 °F - 48.0 °F 97% 29.94 in 10.0 mi South 5.8 mph - N/A   Clear
8:53 AM 51.1 °F - 50.0 °F 96% 29.96 in 10.0 mi South 8.1 mph - N/A   Clear
9:53 AM 55.0 °F - 53.1 °F 93% 29.99 in 10.0 mi SSW 8.1 mph - N/A   Clear
10:53 AM 57.0 °F - 53.1 °F 87% 29.99 in 10.0 mi SW 9.2 mph - N/A   Clear
11:53 AM 59.0 °F - 54.0 °F 83% 29.98 in 10.0 mi SW 8.1 mph - N/A   Clear
12:53 PM 61.0 °F - 54.0 °F 78% 29.95 in 10.0 mi West 4.6 mph - N/A   Clear
1:53 PM 63.0 °F - 52.0 °F 67% 29.93 in 10.0 mi Calm Calm - N/A   Mostly Cloudy
2:53 PM 61.0 °F - 53.1 °F 75% 29.93 in 10.0 mi SE 3.5 mph - N/A   Mostly Cloudy
3:53 PM 62.1 °F - 55.0 °F 78% 29.90 in 10.0 mi ESE 4.6 mph - N/A   Mostly Cloudy
4:53 PM 60.1 °F - 55.0 °F 83% 29.89 in 10.0 mi Calm Calm - N/A   Mostly Cloudy
5:53 PM 57.0 °F - 55.9 °F 96% 29.88 in 4.0 mi Calm Calm - 0.13 in Rain Rain
6:04 PM 55.4 °F - 55.4 °F 100% 29.88 in 2.0 mi Calm Calm - 0.07 in Rain Heavy Rain
6:14 PM 57.2 °F - 55.4 °F 94% 29.88 in 1.8 mi Calm Calm - 0.13 in Rain Heavy Rain
6:22 PM 55.4 °F - 55.4 °F 100% 29.87 in 2.0 mi North 3.5 mph - 0.17 in Rain Rain
6:31 PM 55.4 °F - 55.4 °F 100% 29.87 in 1.8 mi NNE 3.5 mph - 0.20 in Rain Rain
6:39 PM 55.4 °F - 55.4 °F 100% 29.86 in 2.0 mi Calm Calm - 0.24 in Rain Rain
6:42 PM 55.4 °F - 55.4 °F 100% 29.86 in 1.8 mi North 3.5 mph - 0.25 in Rain Rain
6:49 PM 55.4 °F - 55.4 °F 100% 29.84 in 1.5 mi NNE 8.1 mph - 0.28 in Rain Rain
6:53 PM 55.9 °F - 55.9 °F 100% 29.83 in 2.0 mi NNE 9.2 mph - 0.29 in Rain Rain
6:58 PM 55.4 °F - 55.4 °F 100% 29.84 in 3.0 mi NNE 6.9 mph - 0.00 in Rain Light Rain
7:45 PM 55.4 °F - 55.4 °F 100% 29.80 in 10.0 mi NE 6.9 mph - 0.06 in Rain Light Rain
8:18 PM 55.4 °F - 55.4 °F 100% 29.79 in 5.0 mi NNE 3.5 mph - 0.04 in Rain Light Rain
8:25 PM 55.4 °F - 55.4 °F 100% 29.78 in 6.0 mi NE 4.6 mph - 0.04 in Rain Light Rain
8:53 PM 55.9 °F - 55.0 °F 97% 29.79 in 2.0 mi North 4.6 mph - 0.17 in Rain Heavy Rain
9:38 PM 53.6 °F - 53.6 °F 100% 29.76 in 3.0 mi North 8.1 mph - 0.23 in Rain Rain
9:53 PM 52.0 °F - 52.0 °F 100% 29.77 in 5.0 mi NNW 3.5 mph - 0.26 in Rain , Thunderstorm Light Rain
10:13 PM 51.8 °F - 50.0 °F 94% 29.74 in 7.0 mi North 4.6 mph - 0.02 in Rain Light Rain
10:33 PM 51.8 °F - 50.0 °F 94% 29.73 in 7.0 mi NE 9.2 mph - 0.04 in Rain Light Rain
10:45 PM 50.0 °F - 48.2 °F 94% 29.73 in 4.0 mi NW 16.1 mph 23.0 mph 0.08 in Rain Rain
10:53 PM 48.0 °F - 46.9 °F 96% 29.73 in 3.0 mi North 17.3 mph - 0.16 in Rain Heavy Rain
11:09 PM 48.2 °F - 46.4 °F 93% 29.71 in 5.0 mi North 13.8 mph 17.3 mph 0.05 in Rain Rain
11:38 PM 44.6 °F 35.7 °F 44.6 °F 100% 29.74 in 1.8 mi NW 24.2 mph 31.1 mph 0.32 in Rain Heavy Rain
11:53 PM 43.0 °F 34.5 °F 42.1 °F 97% 29.76 in 1.8 mi NW 19.6 mph 28.8 mph 0.55 in Rain Heavy Rain